TITAN 3C TRANSTAGE DEB, 43282

Orbit data source: Space-Track

TITAN 3C TRANSTAGE DEB, 43282 is space debris in GEO originally from a launch on Sun, 09 Feb 1969 UTC launched from the Air Force Eastern Test Range (AFETR). Debris objects in space refer to the collection of defunct objects orbiting the Earth. Examples of debris include non-operational satellites, rocket bodies, and fragments generated from explosions, collisions, or faulty payload assembly.

Loading next visibility...
Identifier
43282, 1969-013C
Orbit
GEO
Country
Flag of USUS
Related business
Manufacturer
Martin Marietta
Mission
Spacecraft
Bus & Motor
Unknown
Mass
Unknown
Launch date (UTC)
1969-02-09 (57 years ago)
Launch vehicle
Unknown
Launch site
Air Force Eastern Test Range (AFETR)
Object type
Payload
Rocket body
Debris
Shape & HBR
Unknown shape, 1.1 m
Radar Cross Section
RCS unknown

Expand to show TLE details & history
Last TLE update: 1 day ago

TLE from 1 day ago
0 TITAN 3C TRANSTAGE DEB
1 43282U 69013C   25305.01667756 -.00000132  00000-0  00000-0 0  9998
2 43282   1.6085  53.3431 0284763 235.6832 121.4823  0.91410087 25502
Epoch: 2025-11-01T00:24Z
TLE epoch observation values (Epoch: 2025-11-01T00:24:00.941Z)
Latitude
-0°
Longitude
6.6289°
Altitude
39,159.732 km
Speed
2.936 km/s
True Right ascension
03h 32m 44s
True Declination
0° 00' 00"
Sunlit
Object was in daylight at epoch
Visualization orbit readout
Latitude
Unknown
Longitude
Unknown
Altitude
Unknown
Speed
Unknown
Apparent Right ascension
Unknown
Apparent Declination
Unknown
Sunlit
N/A
Visualization observer readout
Local Sidereal Time
23:23:03
Azimuth
Unknown
Elevation
Unknown
Doppler factor
Unknown
Orbital elements
Apogee altitude
39,747.583 km
Perigee altitude
37,193.339 km
Semi-major axis
44,848.598 km
Eccentricity
0.02848
Inclination
1.6085°
RAAN
53.3431°
Arg. of periapsis
235.6832°
True anomaly
124.21326°
Mean anomaly
121.4823°
Eccentric anomaly
122.85293°
Mean motion
0.22852 °/min
Orbital period
1,575.37 mins
BSTAR
0
Loading maneuver chart data...
Computing Atmospheric mass density...

Documentation

Showing up to 5 results
|